Location: Easter Hill Village
(37.9235°N, 122.3444°W)
Time: 12:24:57
(UTC+00:00)

USA 81 - Pass Details

Date: 16 September 2019
Orbit: 785 x 788 km, 85.0° (Epoch: 08 October)

Event Time Altitude Azimuth Distance (km) Brightness Sun altitude
Rises 12:04:55 0° 175° (S) 3,261 7.1 -21.3°
Reaches altitude 10° 12:07:16 10° 173° (S) 2,336 6.4 -20.9°
Maximum altitude 12:12:28 68° 91° (E) 847 4.4 -20.0°
Drops below altitude 10° 12:17:42 10° 10° (N) 2,351 6.9 -19.0°
Sets 12:20:04 0° 8° (N) 3,283 7.6 -18.5°
